Regional Weather Roundup
Issued by NWS

Current Version | Previous Version | Text Only | Print | Product List | Glossary On
Versions: 1 2 3 4 5 6 7 8 9 10 11 12 13 14 15 16 17 18 19 20 21 22 23 24 25 26 27 28 29 30 31 32 33 34 35 36 37 38 39 40 41 42 43 44 45 46 47 48 49 50
000
ASUS44 KOUN 220310
RWROK

WEATHER ROUNDUP FOR OKLAHOMA
NATIONAL WEATHER SERVICE NORMAN OK
1000 PM CDT FRI SEP 21 2018

NOTE: "FAIR" INDICATES FEW OR NO CLOUDS BELOW 12,000 FEET WITH NO
      SIGNIFICANT WEATHER AND/OR OBSTRUCTIONS TO VISIBILITY.

OKZ001>007-009>012-014-015-017-220400-
NORTHWEST OKLAHOMA AND THE PANHANDLE

CITY           SKY/WX    TMP DP  RH WIND       PRES   REMARKS
GAGE           CLEAR     54  49  83 CALM      30.27R
GUYMON         CLEAR     58  44  60 SE6       30.31R
$$

OKZ016-021>023-033>039-044-045-220400-
SOUTHWEST OKLAHOMA

CITY           SKY/WX    TMP DP  RH WIND       PRES   REMARKS
LAWTON/REGL    CLOUDY    63  59  87 N20       30.09R
LAWTON/FT SILL CLOUDY    62  60  92 N18G26    30.09R
FREDERICK      CLOUDY    64  59  83 N18       30.09R
CLINTON        CLEAR     57  52  83 N21       30.21R
HOBART         MOCLDY    60  54  80 N20G26    30.16R
ALTUS AFB      PTCLDY    61  53  76 N15G23    30.15R
$$

OKZ018>020-024>031-220400-
CENTRAL OKLAHOMA

CITY           SKY/WX    TMP DP  RH WIND       PRES   REMARKS
OKLAHOMA CITY  CLOUDY    61  58  90 N20       30.13R
OKC/WILEY POST CLOUDY    61  59  93 N17       30.16S
STILLWATER     MOCLDY    61  55  81 N10       30.19R
GUTHRIE        CLOUDY    61  57  87 N7        30.17R
$$

OKZ008-013-054>072-220400-
NORTHEAST OKLAHOMA

CITY           SKY/WX    TMP DP  RH WIND       PRES   REMARKS
TULSA          LGT RAIN  63  61  93 N8        30.14S
TULSA/JONES    LGT RAIN  64  60  87 NE10      30.14S
PONCA CITY     CLOUDY    61  52  72 N15       30.20R
BARTLESVILLE   LGT RAIN  61  58  90 NE7       30.21R
MUSKOGEE       RAIN      67  66  97 N12       30.14R FOG
$$

OKZ032-040>043-046>053-073>077-220400-
SOUTH CENTRAL/SOUTHEAST OKLAHOMA

CITY           SKY/WX    TMP DP  RH WIND       PRES   REMARKS
ARDMORE/DWNTWN CLOUDY    68  64  88 NE12G20   30.01S
MCALESTER      RAIN      69  69 100 NE12G24   30.08R FOG
$$




USA.gov is the U.S. government's official web portal to all federal, state and local government web resources and services.